Search the data

BODC Cruise Metadata Report for RV Jan Mayen cruise JM11

Introduction

This report collates information from the BODC cruise inventory and oceanographic databases. It presents

Cruise Inventory Information

Long name RV Jan Mayen cruise JM11
Short name JM11
Objectives and Narrative ICES Reference Number 1995 58 076
Ship RV Jan Mayen
Departure Port
Departure Date 1995-09-19
Arrival Port
Arrival Date 1995-09-22
Principal Scientist(s) Kurt Tande (University of Tromsų Norwegian College of Fishery Science)
Responsible Organisation University of Tromsų Norwegian College of Fishery Science
Associated Project(s) OMEX
IHB Sea Areas Visited Norwegian Sea
Marsden Squares Visited 251;4/287;2
Work Area Description Norwegian Sea
Work Area Bounding Polygon 65N,15E; 75N,15E; 75N,20E; 65N,20E; 65N,15E
Southern Limit 65N
Northern Limit 75N
Western Limit 15E
Eastern Limit 20E

Cruise Inventory Datasets

No information on datasets is currently available for this cruise

Cruise Inventory Mooring/Buoy Operations

No information on datasets is currently available

Summary of BODC Data Holdings for the Cruise

National Oceanographic Database

Summary

# Series Instrument Description Parameters
40 Bottle station Nitrate concentration parameters in the water column
Phosphate concentration parameters in the water column
Quality control flags
Reference numbers
Silicate concentration parameters in the water column
Vertical spatial coordinates
40 Bottle station Chlorophyll pigment concentrations in water bodies
Phaeopigment concentrations in the water column
Quality control flags
Reference numbers
Vertical spatial coordinates
43 CTD/STD cast Chlorophyll pigment concentrations in water bodies
Density of the water column
Salinity of the water column
Temperature of the water column
Vertical spatial coordinates

Note: Parameter terms are taken from the BODC Parameter Discovery Vocabulary XML (SKOS)

Full List

BODC Reference Instrument Description Date/Time Location  
894125 CTD/STD cast 1995-09-19 13:00Z 69° 36' N, 17° 52' E Click for more
894137 CTD/STD cast 1995-09-19 14:00Z 69° 40' N, 17° 48' E Click for more
894149 CTD/STD cast 1995-09-19 16:00Z 69° 41' N, 17° 28' E Click for more
894150 CTD/STD cast 1995-09-19 17:00Z 69° 45' N, 17° 36' E Click for more
894162 CTD/STD cast 1995-09-19 18:00Z 69° 51' N, 17° 46' E Click for more
894174 CTD/STD cast 1995-09-19 20:00Z 69° 54' N, 17° 30' E Click for more
894186 CTD/STD cast 1995-09-19 21:00Z 69° 48' N, 17° 24' E Click for more
894198 CTD/STD cast 1995-09-19 22:00Z 69° 42' N, 17° 13' E Click for more
894205 CTD/STD cast 1995-09-19 23:00Z 69° 43' N, 16° 59' E Click for more
894217 CTD/STD cast 1995-09-20 00:00Z 69° 51' N, 17° 6' E Click for more
894229 CTD/STD cast 1995-09-20 01:00Z 69° 57' N, 17° 13' E Click for more
894230 CTD/STD cast 1995-09-20 03:00Z 69° 59' N, 16° 52' E Click for more
894242 CTD/STD cast 1995-09-20 04:00Z 69° 52' N, 16° 46' E Click for more
894254 CTD/STD cast 1995-09-20 06:00Z 69° 43' N, 16° 44' E Click for more
894266 CTD/STD cast 1995-09-20 06:00Z 69° 44' N, 16° 39' E Click for more
894278 CTD/STD cast 1995-09-20 07:00Z 69° 53' N, 16° 35' E Click for more
894291 CTD/STD cast 1995-09-20 09:00Z 70° 0' N, 16° 49' E Click for more
894309 CTD/STD cast 1995-09-20 09:00Z 70° 0' N, 16° 46' E Click for more
894310 CTD/STD cast 1995-09-20 10:00Z 69° 53' N, 16° 31' E Click for more
894322 CTD/STD cast 1995-09-20 12:00Z 69° 44' N, 16° 33' E Click for more
894334 CTD/STD cast 1995-09-20 14:00Z 69° 47' N, 16° 39' E Click for more
894346 CTD/STD cast 1995-09-20 18:00Z 69° 49' N, 16° 43' E Click for more
894358 CTD/STD cast 1995-09-20 20:00Z 69° 49' N, 16° 48' E Click for more
894371 CTD/STD cast 1995-09-20 22:00Z 69° 51' N, 16° 51' E Click for more
894383 CTD/STD cast 1995-09-21 02:00Z 69° 54' N, 16° 58' E Click for more
894395 CTD/STD cast 1995-09-21 14:00Z 69° 54' N, 17° 7' E Click for more
894402 CTD/STD cast 1995-09-21 18:00Z 69° 41' N, 17° 28' E Click for more
894414 CTD/STD cast 1995-09-21 18:00Z 69° 45' N, 17° 36' E Click for more
894426 CTD/STD cast 1995-09-21 19:00Z 69° 51' N, 17° 46' E Click for more
894438 CTD/STD cast 1995-09-21 21:00Z 69° 54' N, 17° 30' E Click for more
894451 CTD/STD cast 1995-09-21 21:00Z 69° 48' N, 17° 24' E Click for more
894463 CTD/STD cast 1995-09-21 23:00Z 69° 42' N, 17° 13' E Click for more
894475 CTD/STD cast 1995-09-22 00:00Z 69° 43' N, 16° 59' E Click for more
894487 CTD/STD cast 1995-09-22 01:00Z 69° 51' N, 17° 6' E Click for more
894499 CTD/STD cast 1995-09-22 03:00Z 69° 57' N, 17° 13' E Click for more
894506 CTD/STD cast 1995-09-22 04:00Z 69° 59' N, 16° 52' E Click for more
894518 CTD/STD cast 1995-09-22 05:00Z 69° 52' N, 16° 49' E Click for more
894531 CTD/STD cast 1995-09-22 07:00Z 69° 43' N, 16° 44' E Click for more
894543 CTD/STD cast 1995-09-22 07:00Z 69° 44' N, 16° 39' E Click for more
894555 CTD/STD cast 1995-09-22 09:00Z 69° 53' N, 16° 35' E Click for more
894567 CTD/STD cast 1995-09-22 10:00Z 70° 0' N, 16° 49' E Click for more
894579 CTD/STD cast 1995-09-22 11:00Z 70° 0' N, 16° 46' E Click for more
894580 CTD/STD cast 1995-09-22 12:00Z 70° 0' N, 16° 31' E Click for more
1256041 Bottle station 1995-09-19 13:12Z 69° 36' N, 17° 52' E Click for more
1256053 Bottle station 1995-09-19 14:07Z 69° 40' N, 17° 48' E Click for more
1256065 Bottle station 1995-09-19 16:32Z 69° 41' N, 17° 28' E Click for more
1256077 Bottle station 1995-09-19 17:12Z 69° 45' N, 17° 36' E Click for more
1256089 Bottle station 1995-09-19 18:07Z 69° 51' N, 17° 46' E Click for more
1256090 Bottle station 1995-09-19 20:06Z 69° 54' N, 17° 30' E Click for more
1256108 Bottle station 1995-09-19 21:12Z 69° 48' N, 17° 24' E Click for more
1256121 Bottle station 1995-09-19 22:06Z 69° 42' N, 17° 13' E Click for more
1256133 Bottle station 1995-09-19 23:06Z 69° 43' N, 16° 59' E Click for more
1256145 Bottle station 1995-09-20 00:10Z 69° 51' N, 17° 6' E Click for more
1256157 Bottle station 1995-09-20 01:06Z 69° 57' N, 17° 13' E Click for more
1256169 Bottle station 1995-09-20 03:07Z 69° 59' N, 16° 52' E Click for more
1256170 Bottle station 1995-09-20 04:11Z 69° 52' N, 16° 46' E Click for more
1256182 Bottle station 1995-09-20 06:07Z 69° 43' N, 16° 44' E Click for more
1256194 Bottle station 1995-09-20 06:08Z 69° 44' N, 16° 39' E Click for more
1256201 Bottle station 1995-09-20 07:11Z 69° 53' N, 16° 35' E Click for more
1256213 Bottle station 1995-09-20 09:11Z 70° 0' N, 16° 49' E Click for more
1256225 Bottle station 1995-09-20 09:20Z 70° 0' N, 16° 46' E Click for more
1256237 Bottle station 1995-09-20 10:22Z 69° 53' N, 16° 31' E Click for more
1256249 Bottle station 1995-09-20 12:22Z 69° 44' N, 16° 33' E Click for more
1256250 Bottle station 1995-09-20 14:00Z 69° 48' N, 16° 41' E Click for more
1256262 Bottle station 1995-09-21 00:00Z 69° 52' N, 16° 54' E Click for more
1256274 Bottle station 1995-09-21 14:09Z 69° 54' N, 17° 7' E Click for more
1256286 Bottle station 1995-09-21 18:07Z 69° 41' N, 17° 28' E Click for more
1256298 Bottle station 1995-09-21 18:12Z 69° 45' N, 17° 36' E Click for more
1256305 Bottle station 1995-09-21 19:07Z 69° 51' N, 17° 46' E Click for more
1256317 Bottle station 1995-09-21 21:06Z 69° 54' N, 17° 30' E Click for more
1256329 Bottle station 1995-09-21 21:12Z 69° 48' N, 17° 24' E Click for more
1256330 Bottle station 1995-09-21 23:06Z 69° 42' N, 17° 13' E Click for more
1256342 Bottle station 1995-09-22 00:06Z 69° 43' N, 16° 59' E Click for more
1256354 Bottle station 1995-09-22 01:10Z 69° 51' N, 17° 6' E Click for more
1256366 Bottle station 1995-09-22 03:07Z 69° 57' N, 17° 13' E Click for more
1256378 Bottle station 1995-09-22 04:07Z 69° 59' N, 16° 52' E Click for more
1256391 Bottle station 1995-09-22 05:11Z 69° 52' N, 16° 49' E Click for more
1256409 Bottle station 1995-09-22 07:13Z 69° 43' N, 16° 44' E Click for more
1256410 Bottle station 1995-09-22 07:11Z 69° 44' N, 16° 39' E Click for more
1256422 Bottle station 1995-09-22 09:12Z 69° 53' N, 16° 35' E Click for more
1256434 Bottle station 1995-09-22 10:11Z 70° 0' N, 16° 49' E Click for more
1256446 Bottle station 1995-09-22 11:20Z 70° 0' N, 16° 46' E Click for more
1256458 Bottle station 1995-09-22 12:20Z 70° 0' N, 16° 31' E Click for more
1638364 Bottle station 1995-09-19 13:12Z 69° 36' N, 17° 52' E Click for more
1638376 Bottle station 1995-09-19 14:07Z 69° 40' N, 17° 48' E Click for more
1638388 Bottle station 1995-09-19 16:32Z 69° 41' N, 17° 28' E Click for more
1638407 Bottle station 1995-09-19 17:12Z 69° 45' N, 17° 36' E Click for more
1638419 Bottle station 1995-09-19 18:07Z 69° 51' N, 17° 46' E Click for more
1638420 Bottle station 1995-09-19 20:06Z 69° 54' N, 17° 30' E Click for more
1638432 Bottle station 1995-09-19 21:12Z 69° 48' N, 17° 24' E Click for more
1638444 Bottle station 1995-09-19 22:06Z 69° 42' N, 17° 13' E Click for more
1638456 Bottle station 1995-09-19 23:06Z 69° 43' N, 16° 59' E Click for more
1638468 Bottle station 1995-09-20 00:10Z 69° 51' N, 17° 6' E Click for more
1638481 Bottle station 1995-09-20 01:06Z 69° 57' N, 17° 13' E Click for more
1638493 Bottle station 1995-09-20 03:07Z 69° 59' N, 16° 52' E Click for more
1638500 Bottle station 1995-09-20 04:11Z 69° 52' N, 16° 46' E Click for more
1638512 Bottle station 1995-09-20 06:07Z 69° 43' N, 16° 44' E Click for more
1638524 Bottle station 1995-09-20 06:08Z 69° 44' N, 16° 39' E Click for more
1638536 Bottle station 1995-09-20 07:11Z 69° 53' N, 16° 35' E Click for more
1638548 Bottle station 1995-09-20 09:11Z 70° 0' N, 16° 49' E Click for more
1638561 Bottle station 1995-09-20 09:20Z 70° 0' N, 16° 46' E Click for more
1638573 Bottle station 1995-09-20 10:22Z 69° 53' N, 16° 31' E Click for more
1638585 Bottle station 1995-09-20 12:22Z 69° 44' N, 16° 33' E Click for more
1638597 Bottle station 1995-09-20 14:00Z 69° 48' N, 16° 41' E Click for more
1638604 Bottle station 1995-09-21 00:00Z 69° 52' N, 16° 54' E Click for more
1638616 Bottle station 1995-09-21 14:09Z 69° 54' N, 17° 7' E Click for more
1638628 Bottle station 1995-09-21 18:07Z 69° 41' N, 17° 28' E Click for more
1638641 Bottle station 1995-09-21 18:12Z 69° 45' N, 17° 36' E Click for more
1638653 Bottle station 1995-09-21 19:07Z 69° 51' N, 17° 46' E Click for more
1638665 Bottle station 1995-09-21 21:06Z 69° 54' N, 17° 30' E Click for more
1638677 Bottle station 1995-09-21 21:12Z 69° 48' N, 17° 24' E Click for more
1638689 Bottle station 1995-09-21 23:06Z 69° 42' N, 17° 13' E Click for more
1638690 Bottle station 1995-09-22 00:06Z 69° 43' N, 16° 59' E Click for more
1638708 Bottle station 1995-09-22 01:10Z 69° 51' N, 17° 6' E Click for more
1638721 Bottle station 1995-09-22 03:07Z 69° 57' N, 17° 13' E Click for more
1638733 Bottle station 1995-09-22 04:07Z 69° 59' N, 16° 52' E Click for more
1638745 Bottle station 1995-09-22 05:11Z 69° 52' N, 16° 49' E Click for more
1638757 Bottle station 1995-09-22 07:13Z 69° 43' N, 16° 44' E Click for more
1638769 Bottle station 1995-09-22 07:11Z 69° 44' N, 16° 39' E Click for more
1638770 Bottle station 1995-09-22 09:12Z 69° 53' N, 16° 35' E Click for more
1638782 Bottle station 1995-09-22 10:11Z 70° 0' N, 16° 49' E Click for more
1638794 Bottle station 1995-09-22 11:20Z 70° 0' N, 16° 46' E Click for more
1638801 Bottle station 1995-09-22 12:20Z 70° 0' N, 16° 31' E Click for more

Project Database

# Events Gear Type Parameters Held
1 Drifting rig with sediment traps Sedimentation flux of carbon, nitrogen or organic matter in the water column
Sedimentation flux of pigments in the water column
45 CTD frame plus rosette sampler Particulate total and organic nitrogen concentrations in the water column
Phosphate concentration parameters in the water column
Salinity of the water column
Temperature of the water column
Silicate concentration parameters in the water column

Density of the water column
Phaeopigment concentrations in the water column
Nitrate concentration parameters in the water column
Chlorophyll pigment concentrations in water bodies
Particulate total and organic carbon concentrations in the water column

Note: Parameter terms are taken from the BODC Parameter Discovery Vocabulary XML (SKOS)

References

Track Charts

No track charts currently available

Reports

No reports currently available